Tracking 30415 objects as of 15-May-2025
HD Live streaming from Space Station
objects crossing your sky now

EKRAN 6

Track EKRAN 6 now!
EKRAN 6 is classified as:


NORAD ID: 12120
Int'l Code: 1980-104A
Perigee: 35,770.3 km
Apogee: 35,823.3 km
Inclination: 7.2 °
Period: 1,436.3 minutes
Semi major axis: 42167 km
RCS: 6.3095 m2 (large)
Launch date: December 26, 1980
Source: Commonwealth of Independent States (former USSR) (CIS)
Launch site: TYURATAM MISSILE AND SPACE COMPLEX (TTMTR)
Your satellite tracking list
Your tracking list is empty




NASA's NSSDC Master Catalog

Two Line Element Set (TLE):
1 12120U 80104A   25134.39874014 -.00000274  00000-0  00000-0 0  9994
2 12120   7.2014 294.3297 0006288  76.2008 102.6981  1.00260945123410
Source of the keplerian elements: AFSPC